Date String (YYYY-MM-DD hh:mm:ss) UTC,Instrument flags,Ambient pressure (hPa),Sample flow (lpm),Bypass flow (lpm),Sample temperature (°C),Ambient temperature (°C),ASC tube jacket temperature (°C),LED temperature (°C),Box temperature (°C),Sample RH (%),Span deviation,Mass concentration (μg/m³),Mass concentration (μg/m³),Mass concentration (μg/m³)
DateTimeUTC,F1_M11,P_M11,Q1_M11,Q2_M11,T1_M11,T2_M11,T3_M11,T4_M11,T5_M11,U1_M11,ZSPAN_M11,X2_M11,X0_M11,X1_M11
2022-09-08 19:00:00,,0823.6,4.99,0.00,29.5,27.0,00.0,38.2,31.4,13.4,0002.1,0015.13,0031.72,0013.74
2022-09-08 19:01:00,,0823.6,5.00,0.00,29.5,27.3,00.0,38.1,31.3,13.7,0002.1,0015.00,0030.71,0013.59
2022-09-08 19:02:00,,0823.6,5.00,0.00,29.5,27.5,00.0,38.1,31.2,13.5,0002.0,0014.80,0029.88,0013.43
2022-09-08 19:03:00,,0823.5,5.00,0.00,29.5,27.8,00.0,38.1,31.3,13.6,0002.3,0014.48,0027.45,0013.18
2022-09-08 19:04:00,,0823.6,5.00,0.00,29.5,28.1,00.0,38.1,31.4,13.8,0002.4,0014.21,0026.27,0012.94
2022-09-08 19:05:00,,0823.6,5.01,0.00,29.6,28.3,00.0,38.2,31.5,14.1,0002.7,0014.05,0025.99,0012.81
2022-09-08 19:06:00,,0823.6,4.98,0.00,29.6,28.0,00.0,38.2,31.5,15.1,0002.6,0014.04,0026.17,0012.79
2022-09-08 19:07:00,,0823.6,4.99,0.00,29.6,27.0,00.0,38.2,31.4,19.7,0002.4,0014.43,0026.80,0013.01
2022-09-08 19:08:00,,0823.6,5.01,0.00,29.6,26.8,00.0,38.2,31.4,20.0,0002.3,0014.88,0027.04,0013.33
2022-09-08 19:09:00,,0823.6,5.00,0.00,29.5,27.1,00.0,38.1,31.4,19.9,0002.6,0015.36,0028.43,0013.65
2022-09-08 19:10:00,,0823.5,5.00,0.00,29.5,27.4,00.0,38.1,31.2,18.8,0002.7,0015.94,0030.11,0014.05
2022-09-08 19:11:00,,0823.4,5.00,0.00,29.5,27.6,00.0,38.1,31.3,18.9,0002.2,0016.42,0030.81,0014.46
2022-09-08 19:12:00,,0823.4,5.00,0.00,29.5,27.9,00.0,38.1,31.4,19.6,0002.1,0016.88,0032.19,0014.81
2022-09-08 19:13:00,,0823.4,4.98,0.00,29.6,28.2,00.0,38.2,31.4,18.7,0002.0,0017.28,0033.48,0015.13
2022-09-08 19:14:00,,0823.4,5.01,0.00,29.6,28.4,00.0,38.2,31.5,18.4,0001.7,0017.73,0034.37,0015.49
2022-09-08 19:15:00,,0823.4,5.00,0.00,29.6,28.1,00.0,38.2,31.6,18.8,0001.5,0018.13,0035.07,0015.83
2022-09-08 19:16:00,,0823.3,4.99,0.00,29.6,27.0,00.0,38.2,31.4,16.6,0001.4,0018.36,0035.46,0016.01
2022-09-08 19:17:00,,0823.3,5.00,0.00,29.6,26.8,00.0,38.2,31.4,15.8,0001.3,0018.51,0036.02,0016.09
2022-09-08 19:18:00,,0823.4,5.01,0.00,29.5,27.1,00.0,38.2,31.3,15.2,0001.5,0018.30,0036.04,0015.93
2022-09-08 19:19:00,,0823.4,5.00,0.00,29.5,27.4,00.0,38.1,31.2,15.4,0001.8,0017.88,0036.35,0015.60
2022-09-08 19:20:00,,0823.3,5.00,0.00,29.5,27.6,00.0,38.1,31.3,16.0,0002.1,0017.51,0036.22,0015.31
2022-09-08 19:21:00,,0823.2,5.00,0.00,29.5,27.9,00.0,38.2,31.4,16.3,0002.2,0017.14,0035.55,0015.05
2022-09-08 19:22:00,,0823.2,5.01,0.00,29.6,28.2,00.0,38.2,31.5,16.4,0002.6,0016.80,0035.82,0014.81
2022-09-08 19:23:00,,0823.3,5.00,0.00,29.6,28.3,00.0,38.2,31.5,16.1,0002.8,0016.45,0035.60,0014.53
2022-09-08 19:24:00,,0823.3,4.99,0.00,29.6,27.5,00.0,38.2,31.5,16.4,0002.8,0016.17,0033.74,0014.32
2022-09-08 19:25:00,,0823.2,4.99,0.00,29.6,26.7,00.0,38.2,31.4,18.4,0002.9,0016.05,0033.09,0014.17
2022-09-08 19:26:00,,0823.2,5.00,0.00,29.6,26.9,00.0,38.2,31.4,19.8,0003.2,0016.15,0032.34,0014.19
2022-09-08 19:27:00,,0823.1,4.99,0.00,29.5,27.2,00.0,38.2,31.3,20.0,0003.5,0016.46,0032.47,0014.42
2022-09-08 19:28:00,,0823.1,5.01,0.00,29.5,27.5,00.0,38.2,31.3,19.7,0003.5,0016.84,0034.07,0014.69
2022-09-08 19:29:00,,0823.1,5.01,0.00,29.6,27.8,00.0,38.2,31.3,19.5,0003.7,0017.08,0035.09,0014.95
2022-09-08 19:30:00,,0823.1,5.00,0.00,29.6,28.1,00.0,38.2,31.4,19.1,0002.9,0017.41,0036.66,0015.21
2022-09-08 19:31:00,,0823.1,5.00,0.00,29.6,28.3,00.0,38.2,31.5,19.4,0002.7,0017.72,0036.41,0015.44
2022-09-08 19:32:00,,0823.1,4.98,0.00,29.7,28.1,00.0,38.2,31.5,19.1,0002.5,0018.00,0035.97,0015.64
2022-09-08 19:33:00,,0823.0,5.02,0.00,29.6,27.0,00.0,38.2,31.4,19.4,0002.6,0018.26,0035.33,0015.87
2022-09-08 19:34:00,,0823.0,5.00,0.00,29.6,26.7,00.0,38.2,31.4,19.0,0002.4,0018.48,0035.66,0016.05
2022-09-08 19:35:00,,0823.0,5.01,0.00,29.6,27.0,00.0,38.2,31.4,18.5,0002.6,0018.62,0036.02,0016.18
2022-09-08 19:36:00,,0823.0,5.00,0.00,29.6,27.3,00.0,38.2,31.3,18.6,0002.9,0018.74,0036.91,0016.25
2022-09-08 19:37:00,,0822.9,4.99,0.00,29.5,27.6,00.0,38.2,31.3,18.8,0003.6,0018.56,0038.84,0016.17
2022-09-08 19:38:00,,0823.0,5.00,0.00,29.6,27.9,00.0,38.2,31.4,19.2,0003.4,0018.35,0039.20,0016.01
2022-09-08 19:39:00,,0822.9,5.01,0.00,29.6,28.2,00.0,38.2,31.5,19.2,0003.1,0018.09,0038.12,0015.89
2022-09-08 19:40:00,,0822.9,4.99,0.00,29.7,28.0,00.0,38.2,31.5,19.0,0002.9,0017.93,0036.62,0015.76
2022-09-08 19:41:00,,0823.0,4.99,0.00,29.6,26.9,00.0,38.2,31.4,19.8,0003.0,0017.86,0036.44,0015.66
2022-09-08 19:42:00,,0823.0,5.00,0.00,29.6,26.6,00.0,38.2,31.4,18.5,0003.5,0017.66,0036.41,0015.52
2022-09-08 19:43:00,,0823.0,5.00,0.00,29.5,26.9,00.0,38.2,31.4,17.3,0003.7,0017.37,0036.68,0015.29
2022-09-08 19:44:00,,0823.0,4.99,0.00,29.5,27.2,00.0,38.1,31.3,17.9,0003.8,0017.13,0037.01,0015.07
2022-09-08 19:45:00,,0823.0,5.01,0.00,29.5,27.5,00.0,38.1,31.3,15.4,0003.8,0016.78,0035.25,0014.80
2022-09-08 19:46:00,,0823.0,5.00,0.00,29.5,27.8,00.0,38.2,31.4,13.2,0003.5,0016.30,0034.44,0014.38
2022-09-08 19:47:00,,0823.0,5.00,0.00,29.6,28.1,00.0,38.2,31.5,12.7,0003.3,0015.55,0033.55,0013.81
2022-09-08 19:48:00,,0823.0,4.98,0.00,29.6,28.2,00.0,38.2,31.5,13.0,0002.7,0014.84,0031.81,0013.23
2022-09-08 19:49:00,,0823.0,5.00,0.00,29.6,27.5,00.0,38.2,31.4,13.1,0002.8,0014.22,0030.06,0012.68
2022-09-08 19:50:00,,0823.0,5.01,0.00,29.5,26.6,00.0,38.2,31.3,13.2,0003.3,0013.59,0028.60,0012.12
2022-09-08 19:51:00,,0823.0,5.01,0.00,29.5,26.6,00.0,38.1,31.3,13.4,0003.2,0012.97,0027.06,0011.58
2022-09-08 19:52:00,,0822.9,4.99,0.00,29.5,26.9,00.0,38.1,31.2,13.4,0003.7,0012.34,0025.81,0011.05
2022-09-08 19:53:00,,0822.9,5.01,0.00,29.4,27.3,00.0,38.1,31.2,13.3,0003.3,0011.72,0023.78,0010.51
2022-09-08 19:54:00,,0823.0,5.00,0.00,29.5,27.6,00.0,38.1,31.3,13.4,0003.1,0011.21,0022.66,0010.07
2022-09-08 19:55:00,,0822.9,5.00,0.00,29.5,27.9,00.0,38.1,31.4,13.7,0002.9,0010.74,0021.31,0009.65
2022-09-08 19:56:00,,0822.9,5.01,0.00,29.5,28.1,00.0,38.2,31.4,13.5,0003.4,0010.30,0021.04,0009.24
2022-09-08 19:57:00,,0822.9,4.99,0.00,29.6,28.3,00.0,38.2,31.5,13.7,0003.5,0010.21,0020.42,0009.13
2022-09-08 19:58:00,,0822.9,5.00,0.00,29.6,27.6,00.0,38.2,31.5,13.7,0003.1,0010.24,0019.14,0009.12
2022-09-08 19:59:00,,0822.9,5.01,0.00,29.5,26.6,00.0,38.2,31.3,13.6,0002.2,0010.26,0018.52,0009.12
